Regional Weather Roundup
Issued by NWS Green Bay, WI

Home | Current Version | Previous Version | Text Only | Print | Product List | Glossary On
Versions: 1 2 3 4 5 6 7 8 9 10 11 12 13 14 15 16 17 18 19 20 21 22 23 24 25 26 27 28 29 30 31 32 33 34 35 36 37 38 39 40 41 42 43 44 45 46 47 48 49 50
000
ASUS43 KGRB 180511
RWRGRB

NORTH-CENTRAL AND NORTHEAST WISCONSIN REGIONAL WEATHER ROUNDUP
NATIONAL WEATHER SERVICE GREEN BAY WI
1100 PM CST SUN DEC 17 2017

WIZ005-009-010>012-018-019-180600-
NORTH CENTRAL WISCONSIN

CITY           SKY/WX    TMP DP  RH WIND       PRES   REMARKS
IRONWOOD       CLOUDY    26  24  92 SW13      29.89F
MANITOWISH WTR CLOUDY    24  24 100 SW6       29.89F
ARBOR VITAE    CLOUDY    27  26  96 W3        29.89F FOG
EAGLE RIVER    CLOUDY    26  26 100 SW7       29.89F FOG
LAND O LAKES   CLOUDY    26  26  98 SW6       29.90F FOG
RHINELANDER    CLOUDY    26  26 100 SW6       29.90F FOG
PHILLIPS       CLOUDY    25  25 100 SW5       29.91F FOG
ANTIGO         CLOUDY    26  26 100 W7        29.90F FOG
TOMAHAWK       CLOUDY    25  24  96 CALM      29.91F FOG
MERRILL        FOG       27  27 100 CALM      29.93F VSB 3/4
$$

WIZ013-073-180600-
NORTHEAST WISCONSIN

CITY           SKY/WX    TMP DP  RH WIND       PRES   REMARKS
IRON MOUNTAIN  LGT SNOW  27  24  89 S3        29.90F FOG
MARINETTE      CLOUDY    29  28  96 NW3       29.95F FOG
OCONTO         CLOUDY    28  27  99 W3        29.95F VSB 1/2
$$

WIZ017-030-035>037-045-180600-
CENTRAL WISCONSIN

CITY           SKY/WX    TMP DP  RH WIND       PRES   REMARKS
MEDFORD        FOG       26  25  97 CALM      29.91S VSB 3/4
WAUSAU         LGT SNOW  27  26  96 NW3       29.91F FOG
MOSINEE        NOT AVBL
MARSHFIELD     CLOUDY    28  27  96 W6        29.91F FOG
WISC RAPIDS    FOG       29  27  92 CALM      29.96S VSB 3/4
STEVENS POINT  FOG       26  26 100 CALM      29.94F VSB 1/4
WAUPACA        CLOUDY    30  27  90 CALM      29.96S FOG
SHAWANO        FOG       30  28  94 CALM      29.94F VSB 1/4
CLINTONVILLE   FOG       28  27  93 CALM      29.95F VSB 1/4
WAUTOMA        CLOUDY   N/A N/A N/A CALM      29.96
$$

WIZ038-039-048-051-180600-
FOX VALLEY

CITY           SKY/WX    TMP DP  RH WIND       PRES   REMARKS
NWS GREEN BAY  CLOUDY    30  27  88 W5        29.96F FOG
APPLETON       CLOUDY    28  28 100 CALM      29.94S FOG
OSHKOSH        CLOUDY    30  28  92 S3        29.95S FOG
FOND DU LAC    CLOUDY    31  27  85 CALM      29.96S FOG
$$

WIZ022-050-052-180600-
EAST CENTRAL WISCONSIN

CITY           SKY/WX    TMP DP  RH WIND       PRES   REMARKS
EPHRAIM        CLOUDY    30  30  98 CALM      29.93F FOG
WASHINGTON ISL CLOUDY    32  30  93 W5        29.94F
STURGEON BAY   CLOUDY    29  29 100 W5        29.95F FOG
MANITOWOC      CLOUDY    30  29  96 W5        29.96F FOG
SHEBOYGAN      CLOUDY    30  30 100 W3        29.96R FOG
$$

LMZ563-521-522-541>543-180600-
LAKESHORE

STATION/POSITION TIME  TEMP    WIND        PRES    VSBY  WAVE
                       AIR SEA DIR/SP/G                  HT/PER
                 (UTC) (F)     (DEG/KT/KT) (MB)    (MI)  (FT/S)
SHEBOYGAN LKSHOR 0500   31     300/  5/  5 1015.0F
KEWAUNEE LKSHORE 0442   30     290/  4/  5 1013.5F
NORTHPORT PIER   0500   32      CALM  / 10 1013.9
SISTER BAY LKSHO 0405   33     250/  6/  7   N/A
MENOMINEE LKSHOR 0442   29     340/  6/  8 1014.0F
$$



USA.gov is the U.S. government's official web portal to all federal, state and local government web resources and services.